Lapse_Rate
5.7 6.4 6.5 6.4 6.5 6.5 6.5 6.6 6.5 6.5 6.6 6.5 6.5 6.5 6.4 6.6 6.4 6.6 6.8 6.6 6.7 6.2 5.6 4.8 4.8 4.1 3.9 3.4 3.1 3.2 3.2 2.8 2.5 2.4 2.7 2.8 2.9 2.7 3.1 3.6 4.3 4.3 4.3 4.4
6.5 6.5 6.5 6.5 6.5 6.5 6.5 6.5 6.6 6.5 6.5 6.5 6.5 6.5 6.5 6.4 6.4 6.2 6.4 6.7 6.5 6.5 5.9 4.6 4.4 4.0 3.9 3.5 3.0 2.9 3.2 2.5 2.7 2.6 2.3 2.8 2.7 3.0 3.3 3.8 4.1 4.7 4.7 4.6
6.5 6.5 6.5 6.5 6.5 6.5 6.5 6.5 6.5 6.6 6.5 6.5 6.5 6.5 6.5 6.4 6.4 5.1 5.6 5.9 5.6 5.4 4.9 5.0 4.4 3.9 3.9 3.4 2.9 3.0 2.7 2.5 2.7 3.1 2.3 2.1 2.4 2.6 3.3 3.3 3.6 4.2 4.8 4.7
6.5 6.4 6.5 6.5 6.5 6.5 6.5 6.5 6.5 6.6 6.5 6.5 6.5 6.4 6.5 6.5 6.5 6.4 5.7 5.9 5.1 5.4 5.0 4.6 4.4 4.1 3.7 3.5 3.6 2.9 2.7 2.4 2.7 2.4 3.2 3.4 3.2 3.4 3.0 3.6 3.4 3.9 4.6 4.9
6.5 6.5 6.5 6.6 6.5 6.5 6.5 6.5 6.4 6.5 6.6 6.4 6.5 6.5 6.5 6.5 6.5 6.5 6.2 6.0 5.8 4.9 4.5 4.4 4.2 4.0 4.0 4.3 3.9 3.1 2.5 2.4 2.5 2.2 2.8 3.1 2.9 2.9 3.1 3.1 3.7 3.8 4.1 4.7
6.5 6.1 6.5 6.5 6.5 6.5 6.5 6.5 6.6 6.5 6.5 6.5 6.4 6.4 6.5 6.4 6.6 6.5 6.4 6.3 5.6 5.4 4.4 4.1 4.8 4.0 3.8 4.4 4.6 3.8 2.5 2.2 2.2 2.4 2.5 2.7 3.1 2.7 2.9 3.2 3.1 3.2 3.6 3.9
6.5 6.5 6.4 6.1 6.5 6.5 6.5 6.5 6.5 6.5 6.5 6.5 6.5 6.5 6.5 6.5 6.5 6.5 6.4 5.8 5.8 5.5 4.3 4.4 5.0 3.7 3.4 4.3 4.5 3.5 2.9 2.7 2.4 2.5 2.7 2.5 2.9 3.0 3.1 3.2 2.9 3.0 3.2 3.4
6.5 6.5 6.6 6.4 6.5 6.6 6.6 6.5 6.5 6.5 6.5 6.5 6.6 6.5 6.5 6.6 6.8 5.7 5.2 4.8 5.2 4.2 3.8 4.6 3.9 3.7 3.6 4.6 4.4 3.9 3.4 3.7 2.5 2.7 2.9 2.5 2.6 2.5 2.5 2.7 2.6 2.7 3.0 3.6
6.5 6.5 6.5 6.5 6.5 6.5 6.5 6.5 6.4 6.5 6.5 6.5 6.5 6.5 6.4 6.6 6.5 6.8 6.5 4.8 4.6 4.9 5.1 4.5 3.7 4.5 3.4 3.2 4.4 4.3 3.2 3.4 2.9 2.9 2.8 2.9 2.4 2.5 2.6 2.3 2.6 2.7 2.9 3.6
6.5 6.5 6.5 6.5 6.2 6.3 6.5 6.5 6.5 6.5 6.5 6.5 6.5 6.5 6.5 6.5 6.5 6.5 6.6 6.8 6.2 5.0 3.4 3.6 3.7 4.0 3.3 3.4 3.2 4.6 3.6 3.2 2.6 2.9 2.8 3.3 3.2 3.1 3.1 2.9 2.7 2.7 3.0 3.2
6.5 6.5 6.6 6.5 6.5 6.6 6.5 6.5 6.5 6.5 6.5 6.5 6.5 6.5 6.5 6.5 6.5 6.5 6.7 6.4 5.6 5.3 4.5 3.1 2.6 3.4 3.5 3.7 3.8 3.9 3.5 3.2 2.6 3.6 3.4 3.5 3.6 3.6 3.6 3.4 3.2 2.9 2.9 2.9
6.6 6.5 6.5 6.4 6.5 6.5 6.5 6.4 6.5 6.5 6.5 6.5 6.5 6.5 6.5 6.4 6.3 6.5 6.7 6.4 5.1 4.0 3.9 4.0 3.9 3.8 4.2 4.3 4.1 3.7 3.2 2.7 3.0 3.0 3.0 3.7 3.8 3.9 3.9 3.4 3.4 3.6 3.5 2.9
6.4 6.5 6.5 6.5 6.5 6.5 6.4 6.4 6.5 6.5 6.5 6.5 6.5 6.5 6.5 6.5 6.4 6.0 6.3 6.2 5.8 4.6 3.7 3.5 3.5 3.6 3.7 4.6 3.8 3.8 3.2 2.8 2.6 3.3 2.5 2.4 2.5 2.7 2.7 2.9 3.1 3.2 3.4 3.3
5.9 6.5 6.5 6.5 6.5 6.5 6.4 6.5 6.5 6.5 6.5 6.5 6.5 6.5 6.5 6.5 6.5 6.2 5.7 5.4 5.8 5.1 3.7 3.3 3.2 3.3 2.9 3.1 3.7 3.9 3.6 3.4 3.8 3.4 3.4 3.6 2.9 3.0 2.5 2.3 2.2 2.3 2.7 3.2
6.4 6.5 6.5 6.4 6.4 6.6 6.5 6.5 6.5 6.5 6.5 6.6 6.4 6.5 6.5 6.5 6.6 6.0 5.6 6.6 6.3 5.7 4.8 4.1 3.2 3.1 2.8 2.8 2.9 3.1 2.8 3.1 3.6 4.2 4.8 4.1 3.5 2.8 3.0 2.6 2.4 2.3 2.2 2.1
6.5 6.5 6.5 6.5 6.4 6.4 6.5 6.5 6.4 6.6 6.5 6.5 6.5 6.5 6.5 5.3 5.2 5.9 6.0 5.9 6.4 6.3 5.4 4.8 4.3 3.4 2.9 2.7 2.4 2.4 2.6 2.6 2.6 2.6 2.8 2.7 3.1 2.4 2.0 2.6 2.1 1.8 1.7 2.0
6.5 6.6 6.5 6.5 6.5 6.5 6.5 6.4 6.4 6.5 6.5 6.5 6.5 6.5 6.4 6.5 6.5 6.0 5.9 5.9 5.8 5.8 5.9 5.9 4.9 4.4 3.6 3.0 2.7 2.6 2.6 2.8 2.9 2.3 1.7 2.6 2.6 2.4 1.8 2.3 2.2 2.3 1.5 1.4
6.5 6.5 6.5 6.5 6.5 6.6 6.5 6.5 6.5 6.5 6.5 6.5 6.5 6.5 6.3 6.0 5.4 5.3 5.6 5.6 5.9 6.2 5.9 5.1 4.9 4.6 4.3 3.8 2.4 2.4 2.7 2.9 2.9 2.8 2.5 2.6 2.6 2.4 2.6 2.7 2.0 2.2 1.3 1.6
5.8 6.5 6.5 6.5 6.5 6.5 6.5 6.4 6.4 6.4 6.5 6.5 6.5 6.5 6.1 5.6 5.6 6.1 5.6 5.6 5.1 5.7 5.1 4.5 4.3 4.2 4.2 4.0 4.0 3.4 3.0 2.7 2.7 2.4 2.3 2.0 2.2 2.4 2.2 1.8 1.0 0.3 0.8 2.1
6.4 6.5 6.5 6.5 6.5 6.5 6.5 6.5 6.3 6.4 6.5 6.0 6.3 6.4 6.4 5.7 6.5 6.4 4.3 3.8 4.4 4.3 3.8 3.4 3.1 4.0 3.5 3.1 3.5 2.6 1.9 1.9 1.4 1.4 1.4 1.7 2.4 1.7 1.3 1.2 0.8 0.8 0.9 1.1
6.5 6.5 6.5 6.6 6.5 6.5 6.5 5.9 5.1 6.5 6.5 5.9 6.4 6.3 6.2 6.4 4.8 2.5 3.0 2.9 3.0 2.7 2.2 1.9 1.9 1.7 1.2 1.6 2.0 1.1 0.8 0.4 0.1 0.3 0.0 -0.2 -0.1 1.0 0.2 0.6 0.8 1.2 1.1 0.8
6.5 6.5 6.4 6.5 6.5 6.5 5.7 5.9 6.5 5.8 4.3 4.5 5.2 5.6 6.0 3.7 2.4 3.3 3.1 2.8 2.6 2.0 2.0 1.8 1.2 0.7 0.3 0.5 0.9 0.0 -0.1 -0.5 -0.6 -0.7 -0.9 -1.4 -1.8 -0.9 -0.7 -1.0 -0.1 0.4 0.2 0.2
6.4 6.5 6.5 6.5 6.5 4.8 3.6 5.4 4.8 2.6 3.5 3.8 3.8 3.8 3.3 3.1 3.5 3.0 2.9 2.6 2.8 2.3 1.7 1.5 1.0 0.2 -0.0 0.1 0.4 0.3 -0.2 0.0 -0.2 -0.5 -0.8 -1.1 -1.2 -1.3 -1.3 -1.4 -1.2 -0.3 -0.1 0.2
6.5 5.0 6.6 6.5 6.3 5.7 5.2 5.2 4.5 4.2 4.0 2.2 2.7 2.8 3.3 3.0 2.8 2.5 2.6 2.2 2.2 2.2 1.4 1.4 1.0 0.6 0.3 0.5 0.6 0.3 -0.0 -0.3 -0.2 -0.3 -0.5 -1.0 -1.1 -1.2 -1.1 -0.5 -0.7 -1.1 -0.9 -0.7
5.7 5.8 6.5 6.4 5.7 5.1 4.5 4.3 5.0 4.7 3.2 2.2 2.5 3.0 2.9 2.8 2.7 2.2 2.9 2.5 2.5 1.8 1.4 1.3 1.1 0.9 0.6 0.6 0.7 0.8 0.7 0.6 0.4 0.1 -0.1 -0.2 -0.1 -0.7 -0.6 -0.6 -0.8 -0.4 -1.1 -1.6
4.3 6.5 6.5 6.6 3.0 3.6 3.1 3.8 4.5 3.6 3.1 2.3 1.9 2.6 3.0 2.5 1.9 2.5 2.6 1.7 1.7 1.7 0.9 0.6 0.6 1.1 0.6 0.6 0.9 0.9 0.9 0.9 0.7 0.7 0.6 0.4 0.4 0.3 0.3 0.1 0.0 -1.1 -0.8 -0.9
Wind_Speed
2 4 6 8 5 5 5 6 4 1 11 11 14 3 8 6 5 16 15 14 16 15 12 11 12 11 8 7 7 7 7 6 4 3 3 3 3 2 1 4 3 4 4 5
5 5 7 7 5 5 3 2 2 4 10 5 2 4 8 10 3 10 13 16 16 13 12 12 12 12 11 11 8 7 7 7 5 3 2 3 3 2 2 5 6 4 4 5
6 3 7 5 4 5 1 3 3 5 4 4 8 4 5 3 1 1 2 12 12 15 14 13 14 14 12 11 11 10 9 8 5 5 3 3 4 3 1 0 2 4 6 7
3 2 6 3 4 5 4 6 3 11 5 4 2 4 5 8 9 5 8 8 13 14 14 15 14 13 14 12 10 8 7 7 6 7 4 5 4 3 3 2 2 3 6 5
6 5 5 3 5 6 7 5 5 4 4 4 4 2 2 11 12 16 13 10 10 13 16 17 19 17 13 11 11 9 8 7 6 6 6 5 4 3 2 1 2 2 3 4
6 2 5 8 5 9 5 4 6 5 3 1 6 5 3 6 12 15 12 12 10 14 14 15 15 13 10 8 9 8 9 8 7 7 6 7 7 5 3 2 3 2 2 2
2 3 3 4 4 1 4 6 2 3 2 5 4 5 3 4 8 10 15 8 8 10 12 13 15 11 7 9 12 9 10 10 9 8 6 6 6 6 6 4 3 4 2 2
5 3 7 3 7 7 6 8 5 5 5 4 3 5 3 3 8 5 9 10 9 7 9 12 12 14 15 12 10 10 12 11 9 8 7 6 6 4 4 4 3 3 3 3
4 4 3 5 4 8 4 4 6 7 3 3 2 3 2 4 8 10 10 11 10 7 5 7 7 11 9 8 9 12 10 10 9 8 5 5 4 5 5 5 3 3 3 3
4 1 2 3 3 4 5 5 4 3 4 2 3 4 4 4 5 6 8 8 7 8 7 5 4 8 9 8 4 6 6 6 4 5 5 4 5 5 4 4 4 4 3 4
4 3 4 2 4 4 2 1 6 6 4 5 4 6 3 5 8 8 7 6 5 5 4 4 4 1 7 7 5 5 6 7 6 3 3 5 4 4 3 3 4 4 3 3
1 4 2 2 4 1 2 3 4 5 4 1 3 4 3 4 6 7 7 6 4 4 3 2 4 4 5 9 7 6 7 6 7 3 2 3 2 3 3 3 5 3 4 4
5 2 3 6 6 6 7 5 4 4 3 5 5 4 3 6 5 3 6 4 5 5 4 3 3 5 5 4 5 8 8 7 9 8 8 6 4 4 4 3 1 1 3 3
3 3 4 6 4 2 4 6 4 4 3 5 5 5 8 6 6 5 5 4 4 3 3 3 3 3 3 5 4 9 8 9 8 10 9 6 3 4 5 4 5 5 4 1
4 4 3 4 6 4 4 7 8 4 1 3 5 8 6 10 9 6 5 6 6 5 4 4 3 3 3 4 6 6 6 4 5 5 5 6 6 5 4 5 4 4 5 4
4 2 3 3 5 6 4 9 7 6 2 2 2 3 2 7 7 6 6 6 6 6 5 6 5 5 4 4 6 6 6 6 6 6 5 4 5 6 5 6 5 5 5 5
4 3 2 1 5 5 3 5 3 2 2 2 1 2 4 6 8 7 7 7 6 6 5 6 7 7 7 8 7 7 6 7 8 8 8 6 5 5 5 5 5 6 5 4
4 4 3 1 4 3 6 2 5 7 1 1 2 6 6 6 4 6 4 5 7 8 8 7 7 9 9 9 9 10 10 10 10 10 9 7 7 7 5 4 4 3 3 4
5 4 4 3 1 4 4 4 3 2 2 3 8 8 8 7 5 2 5 4 5 7 7 8 8 9 10 10 8 10 10 9 10 9 8 7 5 5 5 5 5 5 4 3
4 7 4 2 3 5 5 3 2 3 5 7 5 13 13 10 4 4 7 7 9 10 9 9 9 9 10 7 8 10 9 9 8 7 6 6 6 6 6 5 4 3 3 4
3 4 4 2 2 5 5 5 6 5 5 2 9 12 13 8 3 7 10 8 9 8 10 8 8 8 6 5 8 9 7 8 5 5 6 6 6 6 6 5 5 5 4 5
3 4 2 2 3 4 2 3 1 5 2 2 6 5 5 3 6 12 11 10 11 12 9 8 9 6 4 5 9 7 7 3 5 5 6 7 6 6 6 6 6 6 6 6
1 5 4 6 5 5 4 2 1 4 3 3 5 5 7 7 4 5 11 10 9 9 8 6 9 7 4 4 6 8 4 4 5 5 6 6 6 7 6 6 6 5 6 6
2 3 3 3 3 4 3 2 2 1 1 2 4 7 9 7 9 8 6 7 8 7 8 7 8 8 5 4 5 5 4 5 5 5 5 5 6 6 6 5 5 4 5 5
4 5 4 3 5 4 5 4 2 1 3 3 4 4 8 12 10 11 8 7 8 8 7 8 8 7 7 5 5 4 4 4 5 5 4 4 4 5 5 5 5 5 4 5
5 6 5 5 7 6 6 2 2 5 5 7 7 5 3 7 13 11 9 10 9 9 7 6 5 7 6 5 5 5 4 4 4 4 3 3 3 4 4 4 5 8 9 12
Wind_Direction
185 100 181 194 173 130 146 124 217 167 176 160 212 144 176 192 170 177 183 180 190 196 182 172 172 165 152 154 158 165 159 162 153 145 132 116 152 169 153 158 171 139 166 188
58 205 205 182 163 124 105 103 97 11 165 115 2 265 220 183 181 188 180 182 196 190 167 167 169 171 177 172 169 164 174 176 179 150 132 135 154 161 139 162 175 167 167 207
141 230 158 155 143 125 123 169 181 148 108 26 113 313 235 211 164 212 225 190 185 178 171 169 173 179 177 176 177 178 179 179 179 160 114 84 85 74 57 75 163 184 188 212
176 213 137 140 139 126 161 205 161 137 150 160 154 210 189 203 208 209 208 197 186 177 179 167 174 183 182 187 180 173 175 177 186 172 162 155 159 156 200 187 169 173 196 198
229 161 151 160 185 162 209 166 177 167 104 98 210 123 242 172 212 221 218 205 194 173 172 179 181 186 189 176 185 177 169 183 186 186 184 168 156 152 149 166 168 190 198 198
200 162 148 191 190 176 161 136 51 51 100 45 217 157 240 185 229 224 223 204 189 179 181 182 180 183 171 160 178 181 177 192 184 189 200 185 173 162 161 178 200 185 196 194
356 239 222 151 140 98 100 72 47 39 78 213 198 144 241 293 313 243 210 195 179 179 166 169 169 161 153 174 189 178 181 200 187 188 195 202 193 177 182 182 193 167 178 205
147 280 177 182 171 185 179 151 150 159 163 214 105 211 261 350 335 48 137 129 124 137 157 170 176 178 182 198 192 190 189 196 193 182 193 190 194 192 187 187 189 208 201 187
141 268 294 187 160 139 177 153 186 100 14 93 252 278 305 82 41 63 74 91 93 101 132 150 164 187 174 191 202 196 193 199 196 185 174 186 186 198 195 200 200 193 215 200
192 312 267 289 105 56 150 163 88 12 139 174 306 285 229 193 142 97 85 96 90 89 78 92 136 180 186 202 201 193 180 178 173 186 176 187 197 210 202 178 214 227 231 221
125 102 285 48 22 166 88 75 52 109 115 150 162 254 150 187 161 137 114 105 94 87 82 81 45 37 188 179 169 140 133 133 116 294 192 174 213 213 221 221 229 228 225 228
112 134 82 104 325 343 70 105 112 123 209 72 143 265 24 125 132 140 150 147 136 129 119 112 77 54 157 180 158 153 132 136 113 117 63 137 184 211 213 256 260 242 238 222
187 27 74 354 351 8 53 352 102 110 81 184 137 253 125 109 110 117 143 141 150 140 135 126 114 101 100 128 151 125 121 124 112 113 84 44 61 96 90 78 68 211 264 241
91 82 158 155 176 163 59 14 22 104 115 168 212 177 196 171 154 152 153 154 128 111 109 115 121 99 86 104 94 124 136 135 143 123 118 121 92 92 102 85 62 62 51 156
77 94 52 105 133 134 98 31 11 30 33 142 233 196 197 173 162 163 151 147 132 126 118 103 114 105 87 84 87 94 83 82 121 127 149 150 131 84 66 78 64 53 65 57
358 142 95 345 340 74 55 28 19 47 50 40 29 247 186 132 113 133 141 130 130 127 122 120 103 95 86 66 78 78 77 75 77 75 74 81 85 85 57 48 59 59 58 49
56 113 87 301 328 72 346 141 86 81 68 135 202 3 148 128 140 153 147 135 134 125 111 103 95 89 78 69 71 77 79 84 82 78 64 54 67 61 59 58 34 47 43 34
105 81 50 111 19 127 246 351 116 123 341 345 56 119 122 129 118 123 132 142 147 140 119 102 89 85 79 73 70 75 73 72 72 66 58 51 60 61 53 41 68 42 38 35
40 105 71 124 158 287 342 34 81 31 301 172 133 118 114 121 85 70 152 133 115 108 107 98 100 102 94 88 85 78 69 66 63 55 50 39 42 58 56 42 17 25 30 27
46 69 105 115 143 191 238 303 17 200 291 192 173 156 156 148 148 218 157 125 120 123 117 108 100 97 90 84 91 83 74 70 64 57 49 36 32 43 41 32 25 26 6 9
24 19 128 150 197 291 245 295 309 134 248 268 187 173 167 190 226 143 133 120 127 125 118 104 93 98 103 98 97 88 82 70 58 55 52 49 37 45 23 24 33 27 35 41
160 133 179 79 80 279 17 346 2 217 249 222 173 187 186 82 102 128 128 133 138 129 120 113 109 108 108 102 100 91 78 65 60 58 55 45 34 39 29 38 25 28 32 51
337 174 182 168 216 249 288 260 35 165 213 250 168 148 137 130 116 121 138 137 140 137 128 122 125 118 98 96 110 112 120 110 93 78 64 46 41 38 29 39 34 38 28 38
228 162 145 74 256 256 285 313 312 259 21 179 160 143 141 145 139 121 132 138 139 143 141 140 129 124 120 108 98 110 113 101 95 82 61 56 58 45 31 33 36 41 40 36
199 137 161 265 276 301 283 234 216 208 102 111 107 148 145 140 150 155 162 161 161 157 154 150 144 146 145 140 126 121 110 107 100 95 78 53 50 49 43 32 26 22 20 19
189 180 159 216 218 169 233 210 176 166 196 181 154 136 158 170 168 171 173 159 163 172 156 145 150 145 157 156 148 143 137 121 117 100 87 84 75 53 43 31 20 14 14 4